Home > Weather > Kemi > Past weeks

Flag for Finland Weather for the Past 2 Weeks in Kemi, Finland

Now
28 °F

Light snow. Low clouds.


Feels Like: 20 °F
Forecast: 12 / 31 °F
Wind: 8 mph from Southeast

Location: Kemi Airport

Current Time: Feb 14, 2016 at 12:20:10 PM

Latest Report: Feb 14, 2016 at 11:50 AM


Visibility: 1 mi

Pressure: 29.68 "Hg

Humidity: 100%

Dew point: 28 °F

Location of KemiLocation

Historic Weather in Kemi — Graph

°F

Kemi Temperature Yesterday

Maximum temperature yesterday: 32 °F (at 12:20 AM)
Minimum temperature yesterday: 27 °F (at 8:50 PM)
Average temperature yesterday: 30 °F

High & Low Weather Summary for the Past Weeks

 TemperatureHumidityPressure
High36 °F (Jan 30, 11:20 AM)100% (Jan 30, 9:20 PM)29.74 "Hg (Jan 30, 9:20 PM)
Low-2 °F (Feb 4, 1:50 AM)81% (Jan 30, 11:20 AM)28.56 "Hg (Jan 30, 11:20 AM)
Average26 °F95%29.13 "Hg
* Reported Jan 30 11:20 AM — Feb 14 11:20 AM, Kemi, Weather by CustomWeather, © 2016

Note: Actual official high and low records may vary slightly from our data, if they occured in-between our weather recording intervals... More about our weather records

Advertising

Kemi Weather History for the Previous 24 Hours

 ConditionsComfort  
Time TempWeatherWind HumidityBarometerVisibility
11:20 AM
Sun, Feb 14
28 °FSnow. Overcast.8 mph93%29.68 "Hg1 mi
10:50 AM27 °FSnow. Overcast.9 mph93%29.68 "Hg1 mi
10:20 AM25 °FSnow. Overcast.10 mph93%29.68 "Hg1 mi
9:20 AM23 °FLight snow. Overcast.9 mph93%29.71 "Hg2 mi
8:50 AM21 °FLight snow. Overcast.9 mph93%29.71 "Hg3 mi
8:20 AM19 °FClear.8 mph93%29.71 "Hg10 mi
7:50 AM19 °FClear.8 mph93%29.74 "Hg10 mi
7:20 AM18 °FClear.8 mph93%29.74 "Hg10 mi
6:50 AM16 °FClear.7 mph93%29.74 "Hg10 mi
6:20 AM16 °FClear.7 mph93%29.74 "Hg10 mi
5:50 AM16 °FClear.6 mph100%29.74 "Hg10 mi
5:20 AM21 °FClear.6 mph93%29.74 "Hg10 mi
4:50 AM21 °FClear.8 mph93%29.74 "Hg10 mi
4:20 AM21 °FPassing clouds.7 mph93%29.74 "HgN/A
3:20 AM21 °FPassing clouds.6 mph93%29.74 "HgN/A
2:50 AM21 °FPassing clouds.8 mph93%29.74 "HgN/A
2:20 AM23 °FClear.8 mph93%29.74 "Hg10 mi
1:50 AM23 °FClear.8 mph93%29.74 "Hg10 mi
1:20 AM23 °FClear.8 mph93%29.74 "Hg10 mi
12:50 AM23 °FClear.9 mph93%29.74 "Hg10 mi
12:20 AM25 °FClear.9 mph93%29.71 "Hg10 mi
11:20 PM
Sat, Feb 13
27 °FSnow flurries. Mostly cloudy.8 mph93%29.71 "HgN/A
10:50 PM27 °FOvercast.8 mph93%29.68 "HgN/A
10:20 PM27 °FOvercast.9 mph93%29.68 "HgN/A
9:50 PM27 °FPassing clouds.7 mph93%29.68 "HgN/A
9:20 PM27 °FPassing clouds.9 mph93%29.68 "HgN/A
8:50 PM27 °FPartly cloudy.6 mph86%29.65 "HgN/A
8:20 PM28 °FClear.5 mph93%29.65 "Hg10 mi
7:50 PM28 °FClear.6 mph93%29.65 "Hg10 mi
7:20 PM30 °FPassing clouds.8 mph93%29.65 "HgN/A
6:50 PM30 °FLight snow. Low clouds.9 mph93%29.62 "Hg2 mi
6:20 PM28 °FLight snow. Overcast.6 mph100%29.62 "HgN/A
5:50 PM30 °FLight snow. Overcast.6 mph93%29.62 "Hg4 mi
5:20 PM28 °FLight snow. Mostly cloudy.6 mph100%29.62 "Hg2 mi
4:50 PM28 °FLight mixture of precip. Passing clouds.6 mph100%29.62 "HgN/A
4:20 PM28 °FBroken clouds.6 mph100%29.62 "HgN/A
3:50 PM28 °FPartly sunny.3 mph100%29.62 "HgN/A
3:20 PM28 °FPartly sunny.5 mph100%29.62 "HgN/A
2:50 PM28 °FSunny.5 mph100%29.62 "Hg10 mi
2:20 PM30 °FPartly sunny.7 mph93%29.62 "HgN/A
1:50 PM30 °FPassing clouds.7 mph86%29.62 "HgN/A
1:20 PM28 °FBroken clouds.6 mph93%29.62 "HgN/A
12:50 PM28 °FPartly sunny.6 mph93%29.62 "HgN/A
12:20 PM28 °FBroken clouds.6 mph93%29.59 "HgN/A
Weather by CustomWeather, © 2016

See weather overviewHow to use our weather pages